• Em Portugal
  • Lista de países
  • Para 7 dias
  • Temperatura da água
  • Mapas de satélite
  • Mapa do tempo
  • Widgets de tempo
  • user-avatar
    Iniciar Sessão

    Previsão horária em Bejrut

    Hoje, 15 Agosto, Quarta-feira

    Tempo Temperatura Precipitação Vento Pressão Humidade
    00:00 +28°C° 0 mm 3 m/s 751 mmHg 75%
    01:00 +27°C° 0 mm 3 m/s 750 mmHg 74%
    02:00 +27°C° 0 mm 3 m/s 750 mmHg 73%
    03:00 +26°C° 0 mm 3 m/s 750 mmHg 71%
    04:00 +26°C° 0 mm 3 m/s 750 mmHg 69%
    05:00 +26°C° 0 mm 3 m/s 750 mmHg 67%
    06:00 +28°C° 0 mm 3 m/s 750 mmHg 58%
    07:00 +30°C° 0 mm 3 m/s 750 mmHg 49%
    08:00 +33°C° 0 mm 4 m/s 750 mmHg 40%
    09:00 +34°C° 0 mm 4 m/s 751 mmHg 37%
    10:00 +36°C° 0 mm 4 m/s 751 mmHg 34%
    11:00 +37°C° 0 mm 4 m/s 751 mmHg 32%
    12:00 +37°C° 0 mm 4 m/s 750 mmHg 33%
    13:00 +37°C° 0 mm 4 m/s 750 mmHg 35%
    14:00 +38°C° 0 mm 4 m/s 750 mmHg 36%
    15:00 +37°C° 0 mm 3 m/s 750 mmHg 41%
    16:00 +36°C° 0 mm 3 m/s 750 mmHg 45%
    17:00 +36°C° 0 mm 3 m/s 750 mmHg 49%
    18:00 +35°C° 0 mm 3 m/s 750 mmHg 57%
    19:00 +32°C° 0 mm 2 m/s 750 mmHg 64%
    20:00 +31°C° 0 mm 2 m/s 751 mmHg 71%
    21:00 +31°C° 0 mm 2 m/s 751 mmHg 73%
    22:00 +30°C° 0 mm 2 m/s 751 mmHg 74%
    23:00 +29°C° 0 mm 2 m/s 751 mmHg 75%

    Amanhã, 16 Agosto, Quinta-feira

    Tempo Temperatura Precipitação Vento Pressão Humidade
    00:00 +29°C° 0 mm 2 m/s 751 mmHg 75%
    01:00 +28°C° 0 mm 2 m/s 751 mmHg 75%
    02:00 +28°C° 0 mm 2 m/s 751 mmHg 74%
    03:00 +28°C° 0 mm 2 m/s 751 mmHg 75%
    04:00 +27°C° 0 mm 2 m/s 751 mmHg 75%
    05:00 +27°C° 0 mm 2 m/s 751 mmHg 75%
    06:00 +29°C° 0 mm 2 m/s 751 mmHg 64%
    07:00 +31°C° 0 mm 3 m/s 751 mmHg 53%
    08:00 +34°C° 0 mm 3 m/s 752 mmHg 42%
    09:00 +35°C° 0 mm 3 m/s 752 mmHg 37%
    10:00 +36°C° 0 mm 4 m/s 752 mmHg 32%
    11:00 +38°C° 0 mm 4 m/s 752 mmHg 28%
    12:00 +38°C° 0 mm 4 m/s 752 mmHg 30%
    13:00 +38°C° 0 mm 4 m/s 751 mmHg 32%
    14:00 +38°C° 0 mm 4 m/s 751 mmHg 34%
    15:00 +38°C° 0 mm 4 m/s 751 mmHg 38%
    16:00 +37°C° 0 mm 3 m/s 751 mmHg 42%
    17:00 +36°C° 0 mm 3 m/s 751 mmHg 46%
    18:00 +35°C° 0 mm 2 m/s 751 mmHg 53%
    19:00 +34°C° 0 mm 2 m/s 751 mmHg 61%
    20:00 +31°C° 0 mm 2 m/s 752 mmHg 68%
    21:00 +31°C° 0 mm 2 m/s 752 mmHg 68%
    22:00 +30°C° 0 mm 2 m/s 752 mmHg 69%
    23:00 +29°C° 0 mm 2 m/s 752 mmHg 70%

    Depois de amanhã, 17 Agosto, Sexta-feira

    Tempo Temperatura Precipitação Vento Pressão Humidade
    00:00 +29°C° 0 mm 2 m/s 752 mmHg 69%
    01:00 +28°C° 0 mm 2 m/s 752 mmHg 67%
    02:00 +28°C° 0 mm 3 m/s 752 mmHg 66%
    03:00 +27°C° 0 mm 3 m/s 752 mmHg 65%
    04:00 +27°C° 0 mm 3 m/s 752 mmHg 65%
    05:00 +27°C° 0 mm 3 m/s 752 mmHg 64%
    06:00 +29°C° 0 mm 3 m/s 752 mmHg 55%
    07:00 +31°C° 0 mm 3 m/s 752 mmHg 47%
    08:00 +34°C° 0 mm 3 m/s 752 mmHg 38%
    09:00 +35°C° 0 mm 4 m/s 752 mmHg 36%
    10:00 +37°C° 0 mm 4 m/s 752 mmHg 34%
    11:00 +38°C° 0 mm 4 m/s 752 mmHg 31%
    12:00 +38°C° 0 mm 4 m/s 752 mmHg 33%
    13:00 +38°C° 0 mm 4 m/s 752 mmHg 35%
    14:00 +38°C° 0 mm 4 m/s 751 mmHg 37%
    15:00 +37°C° 0 mm 4 m/s 751 mmHg 39%
    16:00 +37°C° 0 mm 4 m/s 751 mmHg 42%
    17:00 +36°C° 0 mm 3 m/s 751 mmHg 45%
    18:00 +34°C° 0 mm 3 m/s 751 mmHg 52%
    19:00 +33°C° 0 mm 3 m/s 751 mmHg 59%
    20:00 +30°C° 0 mm 3 m/s 751 mmHg 67%
    21:00 +30°C° 0 mm 3 m/s 751 mmHg 67%
    22:00 +29°C° 0 mm 3 m/s 751 mmHg 67%
    23:00 +28°C° 0 mm 3 m/s 751 mmHg 67%

    18 Agosto, Sábado

    Tempo Temperatura Precipitação Vento Pressão Humidade
    00:00 +28°C° 0 mm 3 m/s 751 mmHg 67%
    01:00 +27°C° 0 mm 3 m/s 751 mmHg 67%
    02:00 +27°C° 0 mm 3 m/s 751 mmHg 67%
    03:00 +27°C° 0 mm 4 m/s 751 mmHg 68%
    04:00 +26°C° 0 mm 4 m/s 751 mmHg 69%
    05:00 +26°C° 0 mm 4 m/s 751 mmHg 70%
    06:00 +28°C° 0 mm 4 m/s 751 mmHg 61%
    07:00 +30°C° 0 mm 4 m/s 751 mmHg 51%
    08:00 +33°C° 0 mm 4 m/s 751 mmHg 41%
    09:00 +34°C° 0 mm 4 m/s 751 mmHg 37%
    10:00 +36°C° 0 mm 5 m/s 751 mmHg 33%
    11:00 +37°C° 0 mm 5 m/s 751 mmHg 29%
    12:00 +37°C° 0 mm 5 m/s 750 mmHg 31%
    13:00 +37°C° 0 mm 5 m/s 750 mmHg 32%
    14:00 +37°C° 0 mm 5 m/s 749 mmHg 34%
    15:00 +37°C° 0 mm 4 m/s 749 mmHg 38%
    16:00 +36°C° 0 mm 4 m/s 749 mmHg 42%
    17:00 +35°C° 0 mm 4 m/s 749 mmHg 46%
    18:00 +34°C° 0 mm 4 m/s 749 mmHg 53%
    19:00 +32°C° 0 mm 4 m/s 750 mmHg 61%
    20:00 +30°C° 0 mm 3 m/s 750 mmHg 68%
    21:00 +29°C° 0 mm 4 m/s 750 mmHg 69%
    22:00 +28°C° 0 mm 4 m/s 750 mmHg 71%
    23:00 +28°C° 0 mm 4 m/s 750 mmHg 72%

    19 Agosto, Domingo

    Tempo Temperatura Precipitação Vento Pressão Humidade
    00:00 +27°C° 0 mm 4 m/s 750 mmHg 72%
    01:00 +27°C° 0 mm 4 m/s 750 mmHg 72%
    02:00 +27°C° 0 mm 4 m/s 750 mmHg 72%
    03:00 +26°C° 0 mm 4 m/s 750 mmHg 73%
    04:00 +26°C° 0 mm 4 m/s 750 mmHg 74%
    05:00 +25°C° 0 mm 3 m/s 750 mmHg 74%
    06:00 +28°C° 0 mm 4 m/s 750 mmHg 65%
    07:00 +30°C° 0 mm 4 m/s 750 mmHg 55%
    08:00 +33°C° 0 mm 4 m/s 750 mmHg 45%
    09:00 +34°C° 0 mm 4 m/s 750 mmHg 42%
    10:00 +35°C° 0 mm 5 m/s 750 mmHg 40%
    11:00 +37°C° 0 mm 5 m/s 750 mmHg 37%
    12:00 +37°C° 0 mm 5 m/s 749 mmHg 39%
    13:00 +37°C° 0 mm 5 m/s 749 mmHg 41%
    14:00 +37°C° 0 mm 4 m/s 749 mmHg 43%
    15:00 +37°C° 0 mm 4 m/s 749 mmHg 47%
    16:00 +36°C° 0 mm 4 m/s 749 mmHg 52%
    17:00 +35°C° 0 mm 4 m/s 749 mmHg 56%
    18:00 +34°C° 0 mm 3 m/s 749 mmHg 62%
    19:00 +33°C° 0 mm 3 m/s 749 mmHg 69%
    20:00 +31°C° 0 mm 3 m/s 750 mmHg 76%
    21:00 +30°C° 0 mm 3 m/s 750 mmHg 77%
    22:00 +30°C° 0 mm 3 m/s 750 mmHg 79%
    23:00 +29°C° 0 mm 3 m/s 750 mmHg 80%

    20 Agosto, Segunda-feira

    Tempo Temperatura Precipitação Vento Pressão Humidade
    00:00 +29°C° 0 mm 3 m/s 750 mmHg 79%
    01:00 +28°C° 0 mm 3 m/s 749 mmHg 78%
    02:00 +28°C° 0 mm 3 m/s 749 mmHg 78%
    03:00 +27°C° 0 mm 3 m/s 749 mmHg 77%
    04:00 +27°C° 0 mm 3 m/s 750 mmHg 77%
    05:00 +27°C° 0 mm 3 m/s 750 mmHg 76%
    06:00 +29°C° 0 mm 3 m/s 750 mmHg 66%
    07:00 +31°C° 0 mm 3 m/s 750 mmHg 57%
    08:00 +34°C° 0 mm 4 m/s 751 mmHg 47%
    09:00 +35°C° 0 mm 4 m/s 751 mmHg 44%
    10:00 +36°C° 0 mm 4 m/s 751 mmHg 41%
    11:00 +37°C° 0 mm 4 m/s 751 mmHg 39%
    12:00 +37°C° 0 mm 4 m/s 751 mmHg 41%
    13:00 +37°C° 0 mm 4 m/s 750 mmHg 43%
    14:00 +38°C° 0 mm 4 m/s 750 mmHg 45%
    15:00 +37°C° 0 mm 3 m/s 750 mmHg 49%
    16:00 +36°C° 0 mm 3 m/s 750 mmHg 53%
    17:00 +36°C° 0 mm 2 m/s 750 mmHg 56%
    18:00 +35°C° 0 mm 2 m/s 750 mmHg 62%
    19:00 +34°C° 0 mm 2 m/s 751 mmHg 68%
    20:00 +32°C° 0 mm 2 m/s 751 mmHg 74%
    21:00 +31°C° 0 mm 2 m/s 751 mmHg 76%
    22:00 +31°C° 0 mm 2 m/s 751 mmHg 78%
    23:00 +30°C° 0 mm 2 m/s 751 mmHg 80%
    Mostrar mais